Vertical_Velocity
9 8 14 9 5 -4 -0 3 2 -1 -4 3 -0 -0 3 0 1 -3 4 4 3 3 5 5 4 5 2 3 3 7 8 0 4 -5 7 4 3 -2 -5 -3 -10 -3 -3 -6
-5 8 1 -1 -0 -1 2 -0 5 -1 -1 3 -1 -2 -1 -0 0 3 -0 3 5 6 3 2 0 -0 5 3 1 -1 1 -3 -7 -5 1 -7 -7 -5 -9 -3 0 0 -3 2
26 0 1 1 -1 -1 -1 7 -2 3 -2 0 3 -1 -1 -0 2 -1 -1 1 2 1 3 -2 -3 1 1 -1 -1 -2 -5 -4 -2 -0 -3 -1 -2 -0 -1 -1 -1 -2 -5 -2
4 -2 1 1 -2 -3 3 -0 -1 -2 0 11 -5 4 1 -4 -1 -1 0 3 2 2 -2 -2 -2 -2 -0 2 1 2 1 1 1 1 -0 -2 3 6 -1 -3 -5 -4 0 -0
-4 3 0 3 -0 -2 -3 -3 -2 -1 2 -2 -1 0 19 -2 -2 -2 -0 0 1 -1 -2 -1 -1 1 1 -1 -1 -0 -2 -3 -0 -0 -0 -1 -1 0 1 2 1 1 -0 1
-2 0 -2 -2 -2 -4 1 2 -2 -4 -2 7 7 3 -8 8 5 -2 2 1 -1 -1 -1 -1 0 1 -1 -2 -3 -4 -1 -1 -0 2 -0 -0 -0 1 1 -1 2 -1 -1 -1
-0 -1 2 1 0 -1 -2 3 3 3 5 -3 -5 -1 -9 -4 -1 1 -1 2 -0 -0 1 2 0 -2 -1 -1 0 -2 1 0 -1 -1 1 2 1 0 -1 0 -1 1 0 0
-0 10 4 -3 -2 8 0 -2 -0 -0 0 1 -5 -1 10 -2 -1 1 -0 2 2 0 -0 -1 -2 -1 -1 -2 0 0 -1 1 1 1 -0 -2 2 2 1 -1 2 3 1 -1
-4 3 1 -0 2 -5 -3 3 -6 -1 -3 0 -2 -7 -2 -2 -1 0 0 -2 -1 0 1 1 1 0 -1 -0 0 0 0 -1 -1 0 -1 2 -0 0 -2 -0 -2 -2 -2 -3
-3 1 -1 -2 -1 -2 -3 -3 -0 -3 1 -0 2 -3 8 -3 -3 -1 -2 -1 -0 1 -1 -2 -0 1 1 1 1 1 1 1 -0 -1 -3 -1 1 -5 -3 0 -2 -3 -2 -0
-1 -2 1 1 -4 4 -2 -2 -4 -0 -3 2 0 6 -2 -3 -2 -3 -1 2 1 -0 1 1 1 1 1 0 -1 1 2 -2 -3 -0 2 1 -7 -2 -1 -1 -2 -1 -1 -2
-4 -2 2 6 -3 -2 -5 1 1 2 1 -2 -0 -2 -2 -2 -3 -3 -2 -2 3 1 0 2 1 -0 0 2 1 -0 -3 0 5 3 0 -4 -1 -1 -0 -1 -1 -2 -1 -2
-5 -2 3 4 1 -2 -3 -2 -1 -2 1 -4 0 0 1 -4 -5 -4 -3 -3 -2 0 1 1 2 3 3 2 2 0 3 4 3 -3 -1 1 -1 -1 -0 0 0 -2 -3 -3
3 -1 -2 -5 7 0 -3 1 2 3 -0 -1 -12 -2 -2 -1 -2 -2 -2 -3 -1 1 1 3 2 1 3 2 -1 0 5 2 3 2 0 -1 -0 1 0 -1 -2 -3 -2 -3
1 -1 1 -1 -1 -0 -1 2 1 -4 0 -4 -3 -8 10 1 1 -1 -1 -2 -3 -0 -0 1 3 4 3 1 1 3 3 5 -0 -1 0 -2 -0 -1 -2 -3 -3 -3 -2 -0
-2 -2 0 -0 -0 0 -1 1 -0 -1 -3 -10 7 -25 7 3 -1 -0 -0 -2 -1 0 3 4 3 3 3 1 1 7 1 -3 -1 0 0 1 -1 -1 -3 -2 -3 -2 -1 -3
4 1 1 -1 1 1 -5 -6 -2 3 -1 7 -4 11 -4 1 0 -0 -2 -1 -1 -1 -0 2 5 3 3 2 6 -1 -0 3 -1 -0 -1 -1 -1 -1 -3 -3 -1 -2 -3 -2
-1 2 3 -1 0 -0 -4 -0 0 0 2 2 2 5 4 2 1 1 1 -1 -1 -0 1 2 2 2 2 1 -2 2 -1 -2 2 -2 -2 -1 -4 -1 -1 -1 -0 -2 -5 -3
-0 1 -1 -1 -0 -5 -9 -5 2 4 -4 2 1 3 1 -0 -1 0 -1 -2 -1 0 1 0 3 3 1 3 4 3 -0 -4 -6 -0 -4 -3 -2 1 -0 -3 -0 -4 -1 -1
1 1 -0 0 -1 -1 -1 -0 3 0 -1 -0 1 -0 -2 -2 -1 8 -1 1 -0 1 -1 -1 0 -2 -5 2 7 2 -3 -1 3 -3 1 -4 -0 3 0 -1 -1 -5 -4 -1
0 1 -2 1 -1 -5 0 2 -1 -1 4 -4 -3 -2 1 0 1 1 -3 -2 -0 0 -1 1 1 7 1 6 -1 0 3 2 -7 1 0 -1 -0 -2 -2 -1 0 -2 4 4
-0 -0 -2 1 -0 -3 -1 -1 -3 -2 -0 0 2 1 0 -1 -3 -4 -2 -0 -0 -0 1 2 2 7 3 5 -3 3 -4 -1 0 -1 -1 -2 0 -3 -4 -1 -1 -0 -0 -1
-4 -1 -0 -3 2 3 3 -1 -0 -3 -3 1 -0 1 2 1 -0 0 1 0 1 1 5 1 8 7 11 -2 -0 -5 0 2 1 -0 -1 1 -4 -4 -2 -2 -1 -0 -2 -3
-2 1 -3 4 1 4 -1 -1 -2 -1 -2 -1 0 2 2 1 1 2 2 1 -1 0 7 15 16 -1 4 -2 -2 1 0 -1 -1 -1 -1 -3 -1 2 1 -1 -1 -3 -4 -1
0 2 2 -5 2 -1 1 1 0 2 -0 -0 -1 -1 0 1 1 2 1 3 4 11 9 3 -4 3 -0 -4 -3 -3 -0 -1 -1 -2 -3 1 1 -1 0 -1 1 -4 -1 1
2 -4 0 -2 -0 1 -1 -2 -1 -1 0 0 -0 0 0 1 3 3 3 5 11 7 6 4 0 -5 -5 -4 -2 -2 -2 -2 -3 -0 -8 6 -1 -4 -3 -1 -2 -7 7 -3
Height
3131 3133 3133 3135 3137 3137 3138 3140 3142 3144 3146 3148 3149 3150 3151 3153 3155 3156 3157 3158 3159 3160 3162 3163 3165 3166 3166 3166 3165 3164 3163 3162 3158 3158 3160 3160 3161 3162 3161 3160 3159 3157 3153 3150
3134 3133 3133 3134 3136 3138 3138 3140 3142 3143 3144 3146 3147 3148 3149 3150 3151 3152 3153 3155 3157 3158 3159 3160 3161 3162 3161 3160 3159 3159 3159 3158 3159 3159 3159 3158 3159 3158 3157 3156 3153 3150 3147 3145
3131 3133 3133 3135 3136 3137 3138 3139 3139 3142 3141 3143 3145 3146 3145 3146 3147 3148 3149 3151 3153 3154 3154 3155 3156 3156 3156 3157 3157 3157 3157 3156 3157 3157 3156 3155 3154 3152 3151 3149 3146 3144 3140 3136
3132 3133 3134 3135 3136 3137 3138 3137 3138 3139 3141 3140 3142 3138 3140 3142 3143 3144 3146 3147 3148 3149 3150 3152 3153 3153 3154 3154 3154 3154 3154 3155 3154 3153 3152 3150 3149 3148 3145 3141 3138 3134 3131 3127
3132 3132 3134 3136 3135 3136 3138 3137 3138 3139 3140 3140 3140 3141 3137 3138 3139 3140 3141 3142 3144 3145 3147 3149 3150 3151 3150 3150 3151 3152 3153 3152 3150 3149 3147 3145 3143 3141 3138 3134 3130 3126 3122 3118
3130 3131 3133 3134 3134 3136 3136 3137 3137 3138 3139 3137 3136 3138 3133 3134 3136 3134 3135 3137 3139 3142 3144 3146 3147 3148 3149 3149 3149 3149 3148 3147 3146 3144 3142 3140 3138 3135 3132 3128 3124 3119 3114 3109
3130 3131 3131 3133 3134 3135 3135 3136 3136 3137 3136 3133 3133 3135 3131 3130 3131 3131 3131 3133 3136 3138 3140 3143 3144 3145 3146 3146 3145 3143 3143 3142 3141 3139 3137 3134 3132 3129 3126 3122 3117 3113 3107 3101
3128 3132 3130 3130 3133 3134 3134 3135 3135 3134 3132 3131 3132 3129 3127 3126 3127 3128 3128 3130 3133 3135 3138 3140 3141 3142 3143 3142 3140 3140 3139 3138 3136 3134 3131 3129 3125 3122 3119 3114 3110 3103 3095 3090
3126 3128 3127 3129 3130 3133 3132 3134 3134 3135 3134 3134 3128 3127 3126 3125 3125 3125 3125 3127 3129 3132 3135 3137 3139 3139 3139 3137 3137 3136 3134 3132 3130 3128 3125 3122 3118 3114 3110 3105 3099 3093 3087 3080
3123 3126 3126 3127 3129 3130 3131 3132 3134 3134 3133 3129 3123 3125 3123 3123 3123 3123 3123 3125 3127 3130 3132 3133 3134 3134 3133 3132 3131 3130 3128 3126 3123 3121 3117 3114 3110 3106 3102 3096 3090 3084 3078 3072
3122 3124 3126 3126 3127 3128 3129 3130 3131 3131 3130 3127 3125 3121 3122 3121 3121 3122 3123 3124 3125 3126 3128 3129 3129 3129 3128 3126 3125 3123 3122 3119 3116 3113 3109 3106 3102 3098 3092 3086 3082 3077 3071 3065
3119 3121 3122 3125 3123 3124 3125 3126 3127 3127 3128 3127 3127 3123 3119 3120 3120 3121 3121 3121 3122 3122 3122 3123 3122 3122 3121 3120 3119 3117 3114 3111 3109 3105 3102 3098 3094 3089 3084 3080 3075 3069 3063 3056
3117 3118 3120 3121 3123 3121 3121 3121 3123 3124 3124 3124 3126 3121 3118 3118 3118 3118 3118 3118 3118 3117 3117 3117 3117 3116 3115 3114 3112 3110 3107 3105 3102 3098 3094 3090 3085 3081 3077 3072 3067 3060 3054 3047
3114 3115 3116 3116 3116 3117 3116 3116 3118 3121 3121 3119 3117 3117 3115 3114 3114 3113 3113 3113 3112 3112 3112 3112 3111 3111 3110 3108 3105 3102 3099 3098 3095 3090 3087 3082 3079 3075 3070 3064 3057 3050 3044 3038
3111 3112 3112 3112 3113 3113 3113 3113 3113 3114 3115 3115 3113 3112 3113 3111 3109 3107 3107 3107 3106 3106 3106 3106 3105 3104 3103 3100 3098 3095 3093 3091 3087 3083 3080 3076 3072 3066 3060 3054 3048 3042 3036 3030
3107 3108 3108 3109 3109 3109 3109 3109 3109 3109 3109 3108 3107 3105 3106 3104 3102 3102 3101 3100 3100 3099 3099 3099 3098 3097 3095 3093 3090 3089 3086 3082 3078 3075 3072 3068 3062 3056 3051 3045 3039 3034 3028 3022
3104 3104 3106 3106 3106 3106 3105 3102 3103 3103 3103 3103 3101 3102 3098 3098 3097 3096 3095 3095 3094 3093 3093 3092 3091 3090 3088 3085 3083 3079 3076 3073 3070 3068 3063 3058 3053 3048 3043 3037 3031 3025 3020 3015
3100 3102 3103 3103 3104 3104 3098 3097 3097 3097 3097 3096 3095 3094 3093 3092 3091 3091 3090 3089 3088 3087 3086 3085 3084 3082 3080 3077 3074 3071 3067 3065 3063 3060 3055 3050 3045 3040 3034 3029 3023 3017 3012 3006
3097 3099 3100 3101 3100 3097 3096 3094 3094 3093 3094 3092 3091 3089 3088 3087 3086 3086 3085 3084 3082 3081 3079 3078 3077 3075 3072 3070 3066 3063 3060 3057 3055 3052 3047 3042 3036 3031 3026 3021 3015 3009 3005 2999
3094 3096 3098 3098 3098 3095 3092 3091 3090 3089 3089 3087 3087 3086 3085 3084 3083 3084 3080 3078 3077 3075 3073 3072 3070 3068 3065 3061 3057 3054 3052 3050 3047 3044 3039 3034 3028 3023 3018 3012 3006 3001 2996 2991
3090 3092 3093 3093 3093 3090 3088 3087 3087 3089 3092 3085 3085 3083 3082 3080 3079 3076 3073 3072 3070 3068 3067 3065 3063 3060 3057 3052 3049 3048 3046 3043 3039 3036 3031 3025 3020 3015 3009 3004 2999 2993 2989 2983
3088 3089 3088 3088 3089 3087 3085 3085 3087 3086 3082 3081 3080 3078 3076 3074 3072 3070 3068 3065 3063 3061 3059 3057 3054 3051 3047 3044 3043 3041 3038 3035 3032 3028 3022 3017 3012 3006 3001 2996 2991 2986 2981 2976
3085 3084 3085 3086 3085 3083 3081 3081 3080 3078 3077 3075 3074 3072 3070 3067 3065 3063 3061 3059 3057 3055 3052 3049 3043 3038 3036 3035 3035 3032 3031 3028 3024 3019 3014 3009 3003 2998 2992 2988 2983 2979 2973 2969
3079 3079 3079 3081 3080 3079 3077 3075 3073 3071 3070 3068 3067 3065 3063 3060 3058 3055 3053 3051 3049 3045 3042 3038 3033 3032 3032 3029 3028 3027 3024 3021 3016 3011 3006 3001 2994 2990 2985 2981 2976 2971 2967 2963
3075 3075 3074 3074 3074 3073 3071 3068 3067 3065 3063 3061 3059 3057 3055 3052 3049 3047 3045 3042 3040 3036 3032 3029 3027 3027 3025 3024 3023 3020 3017 3012 3008 3004 2999 2993 2987 2983 2978 2974 2969 2965 2960 2956
3070 3069 3069 3069 3068 3067 3065 3061 3060 3057 3055 3053 3050 3048 3046 3044 3041 3039 3037 3034 3029 3025 3023 3023 3022 3021 3020 3019 3017 3013 3009 3006 3001 2996 2991 2985 2979 2975 2971 2967 2962 2958 2954 2950